260P/McNaught (2019)

Japanese version
Home page
Updated on January 23, 2020

---------------------------------------------------------------------

* Profile

* Pictures

* Orbital Elements

Epoch 2019 Aug. 25.0 TT = JDT 2458720.5
T 2019 Sept.  9.95577 TT                                Williams
q   1.4167146            (2000.0)            P               Q
n   0.14302600     Peri.   18.38846     +0.98888139     -0.14075637
a   3.6212574      Node   349.35525     +0.08127673     +0.78173027
e   0.6087783      Incl.   15.05216     +0.12452985     +0.60752402
P   6.89
From 4778 observations 2005 May 20-2019 Nov. 4, mean residual 0".5.

* Finding Charts

* Magnitudes Graph

        m1 = 9.0 + 5 log d + 25.0 log r(t - 15)

---------------------------------------------------------------------

The orbital elements are published on M.P.E.C. 2019-V116.
The charts are made with StellaNavigator Ver.8 (AstroArts).
The magnitudes graphs are made with Comet for Windows.

---------------------------------------------------------------------

Copyright(C) Seiichi Yoshida (comet@aerith.net). All rights reserved.